Showing default

KUIPER-00304, 68599

Orbit data source: Space-Track

KUIPER-00304, 68599 is a payload satellite owned by Kuiper Systems (US) in LEO that was launched on Sat, 04 Apr 2026 UTC via an ATLAS V 551 launch vehicle from the Air Force Eastern Test Range (AFETR). Payload-class satellites include a variety of spacecraft equipped with specific instruments for various scientific and technological missions. These include communications satellites like Starlink; space stations such as the ISS; scientific satellites like the Hubble; Earth observation satellites from companies like Planet Labs, Umbra, and HawkEye 360; GPS; miniature CubeSats for education and research; and military/defense satellites.

Loading next visibility...
Identifier
68599, 2026-072AC
Orbit
LEO
Country
Flag of USUS
Related business
Manufacturer
Kuiper Systems
Mission
Operational spacecraft
Bus & Motor
KUIPER, Unknown motor
Mass
~490 kg wet, ~490 kg dry
Launch date (UTC)
2026-04-04 (2 months ago)
Launch vehicle
ATLAS V 551
Launch site
Air Force Eastern Test Range (AFETR)
Object type
Payload
Rocket body
Debris
Shape & HBR
Unknown shape, 3.4 m
Radar Cross Section
Large (>1 m²)

Expand to show TLE details & history
Last TLE update: 22 hours ago

TLE from 22 hours ago
0 KUIPER-00304
1 68599U 26072AC  26149.70648628  .00038600  00000-0  10364-2 0  9990
2 68599  51.8683 266.5271 0010637 321.2189  38.8034 15.37508066  8535
Epoch: 2026-05-29T16:57Z
TLE epoch observation values (Epoch: 2026-05-29T16:57:20.414Z)
Latitude
0.00003°
Longitude
124.95905°
Altitude
448.584 km
Speed
7.648 km/s
True Right ascension
17h 46m 06s
True Declination
0° 00' 00"
Sunlit
Object was in full shadow at epoch
Visualization orbit readout
Latitude
Unknown
Longitude
Unknown
Altitude
Unknown
Speed
Unknown
Apparent Right ascension
Unknown
Apparent Declination
Unknown
Sunlit
N/A
Visualization observer readout
Local Sidereal Time
00:43:10
Azimuth
Unknown
Elevation
Unknown
Doppler factor
Unknown
Orbital elements
Apogee altitude
461.216 km
Perigee altitude
446.681 km
Semi-major axis
6,832.086 km
Eccentricity
0.00106
Inclination
51.8683°
RAAN
266.5271°
Arg. of periapsis
321.2189°
True anomaly
38.87986°
Mean anomaly
38.8034°
Eccentric anomaly
38.84162°
Mean motion
3.84338 °/min
Orbital period
93.67 mins
BSTAR
0.0010364
Loading maneuver chart data...
Computing Atmospheric mass density...
Loading historical data...
Loading historical data...
Loading historical data...
Loading historical data...
Loading historical data...
Loading historical data...
Loading historical data...

Documentation

Showing up to 5 results
|